Location: Moscow
(30.9132°N, 94.8252°W)
Time: 13:46:21
(UTC+00:00)

DELTA 2 R/B (1) - Pass Details

Date: 15 November 2025
Orbit: 786 x 800 km, 39.6° (Epoch: 06 December)

Event Time Altitude Azimuth Distance (km) Brightness Sun altitude
Rises 01:33:24 0° 244° (WSW) 3,270 7.8 -28.2°
Reaches altitude 10° 01:35:52 10° 244° (WSW) 2,340 6.8 -28.7°
Enters shadow 01:40:37 66° 257° (WSW) 852 3.8 -29.8°
